Change the Weather History Date:

Friday, October 18, 2013

  Actual Average Record
Temperature  
Mean Temperature 45 °F 59 °F  
Max Temperature 53 °F 71 °F 90 °F (2005)
Min Temperature 37 °F 48 °F 28 °F (1948)
Degree Days  
Heating Degree Days 20 7  
Month to date heating degree days 101 97  
Since 1 July heating degree days 112 139  
Cooling Degree Days 0 1  
Month to date cooling degree days 51 36  
Year to date cooling degree days 1572 1678  
Moisture  
Dew Point 41 °F    
Average Humidity 80    
Maximum Humidity 96    
Minimum Humidity 64    
Precipitation  
Precipitation 0.28 in 0.13 in 1.80 in (1985)
Month to date precipitation 1.52 2.34  
Year to date precipitation 36.98 38.26  
Sea Level Pressure  
Sea Level Pressure 30.08 in    
Wind  
Wind Speed 7 mph (North)    
Max Wind Speed 17 mph    
Max Gust Speed 22 mph    
Visibility 9 miles    
Events Rain    
T = Trace of Precipitation, MM = Missing Value Source: NWS Daily Summary

Daily Weather History Graph

Daily Weather History Graph

Search for Another Location

Airport or City:

Trip Planner

Search our weather history database for the weather conditions in past years. The results will help you decide how hot, cold, wet, or windy it might be!

Date:

Astronomy

Oct. 18, 2013 Rise Set
Actual Time 7:28 AM CDT 6:36 PM CDT
Civil Twilight 7:02 AM CDT 7:03 PM CDT
Nautical Twilight 6:32 AM CDT 7:33 PM CDT
Astronomical Twilight 6:02 AM CDT 8:03 PM CDT
Moon 6:27 PM CDT (10/18) 7:05 AM CDT (10/18)
Length of Visible Light 12h 00m
Length of Day
11h 07m
Full, 100% of the Moon is Illuminated
Oct 18
Full
Oct 18
Full
Oct 26
Last Quarter
Nov 3
New
Nov 9
First Quarter

Hourly Weather History & Observations

Time (CDT) Temp. Windchill Dew Point Humidity Pressure Visibility Wind Dir Wind Speed Gust Speed Precip Events Conditions
12:53 AM 46.0 °F 43.1 °F 43.0 °F 89% 30.02 in 10.0 mi SSW 5.8 mph - N/A   Clear
1:53 AM 46.0 °F 42.5 °F 44.1 °F 93% 30.04 in 10.0 mi WNW 6.9 mph - N/A   Clear
2:53 AM 46.0 °F 43.1 °F 42.1 °F 86% 30.06 in 10.0 mi North 5.8 mph - N/A   Clear
3:53 AM 44.1 °F 40.8 °F 41.0 °F 89% 30.06 in 10.0 mi North 5.8 mph - N/A   Clear
4:53 AM 42.1 °F 39.2 °F 39.9 °F 92% 30.06 in 10.0 mi NNE 4.6 mph - N/A   Clear
5:53 AM 42.1 °F 39.2 °F 39.0 °F 89% 30.06 in 10.0 mi NNE 4.6 mph - N/A   Clear
6:53 AM 39.0 °F - 37.9 °F 96% 30.09 in 9.0 mi Calm Calm - N/A   Clear
7:53 AM 39.0 °F 35.7 °F 37.0 °F 93% 30.09 in 6.0 mi NNE 4.6 mph - N/A   Clear
8:53 AM 45.0 °F 40.1 °F 41.0 °F 86% 30.10 in 10.0 mi North 9.2 mph - N/A   Clear
9:53 AM 48.9 °F - 41.0 °F 74% 30.12 in 10.0 mi NNE 6.9 mph - N/A   Clear
10:53 AM 50.0 °F - 39.9 °F 68% 30.10 in 10.0 mi NE 9.2 mph - N/A   Scattered Clouds
11:53 AM 51.1 °F - 41.0 °F 68% 30.09 in 10.0 mi NNE 8.1 mph - N/A   Mostly Cloudy
12:53 PM 52.0 °F - 42.1 °F 69% 30.09 in 10.0 mi North 8.1 mph - N/A   Mostly Cloudy
1:53 PM 53.1 °F - 41.0 °F 64% 30.04 in 10.0 mi Variable 6.9 mph - N/A   Overcast
2:53 PM 50.0 °F - 39.9 °F 68% 30.06 in 10.0 mi North 9.2 mph - N/A   Overcast
3:53 PM 48.9 °F - 42.1 °F 77% 30.05 in 10.0 mi North 6.9 mph - 0.00 in Rain Light Rain
4:53 PM 48.9 °F - 41.0 °F 74% 30.05 in 10.0 mi North 8.1 mph - 0.00 in Rain Light Rain
5:50 PM 44.6 °F 38.4 °F 42.8 °F 93% 30.06 in 2.0 mi North 12.7 mph - 0.11 in Rain Heavy Rain
5:53 PM 44.1 °F 37.4 °F 42.1 °F 93% 30.07 in 2.0 mi North 13.8 mph - 0.12 in Rain Heavy Rain
6:32 PM 43.0 °F 37.7 °F 42.1 °F 97% 30.07 in 7.0 mi North 9.2 mph - 0.07 in Rain Light Rain
6:53 PM 43.0 °F 38.2 °F 41.0 °F 93% 30.09 in 6.0 mi North 8.1 mph - 0.10 in Rain Rain
7:45 PM 42.1 °F 37.1 °F 41.0 °F 96% 30.10 in 7.0 mi NNW 8.1 mph - 0.04 in Rain Light Rain
7:53 PM 42.1 °F 36.6 °F 41.0 °F 96% 30.11 in 7.0 mi North 9.2 mph - 0.05 in Rain Light Rain
8:53 PM 42.1 °F 39.2 °F 41.0 °F 96% 30.11 in 10.0 mi North 4.6 mph - 0.01 in   Overcast
9:53 PM 39.9 °F 33.4 °F 37.9 °F 93% 30.12 in 6.0 mi NNW 10.4 mph - N/A   Overcast
10:53 PM 39.0 °F 33.4 °F 37.9 °F 96% 30.13 in 10.0 mi NNW 8.1 mph - 0.00 in Rain Light Rain
11:53 PM 39.0 °F 33.4 °F 37.9 °F 96% 30.13 in 10.0 mi NNW 8.1 mph - 0.00 in   Overcast